Theologos P . — SZNB — position and weather

sailwx.info

Track history (hours):
 
Tides and Currents Weather Stations Pressure Air Temp Water Temp Dewpoint Dewpoint Depression Visibility Wind Speed Wind Dir Waves Ship Positions

Theologos P .

Last reported at 2014-Jul-24 09:10 UTC. Time now 2014-Jul-24 16:56 UTC.
Position N 38°01' E 024°02'.

Length 118 m; draft 4.5 m.

Type: Passenger vessel. MMSI: 240521000.

Date/timePositionNaut miles runAvg speedWind from/ knotsBaromVisibWave heightAir tempDewpointWater temp
2014-Jul-24 09:10N 38°01' E 024°02'4815.9
2014-Jul-24 06:10N 37°40' E 024°56'1219.1
2014-Jul-24 05:33N 37°33' E 025°07'1110.9
2014-Jul-24 04:34N 37°28' E 025°20'0 0.0
2014-Jul-24 03:34N 37°28' E 025°20'0 0.0
2014-Jul-24 02:33N 37°28' E 025°20'0 0.0
2014-Jul-24 01:33N 37°28' E 025°20'0 0.0
2014-Jul-24 00:34N 37°28' E 025°20'0 0.0
2014-Jul-23 23:34N 37°28' E 025°20'0 0.0
2014-Jul-23 22:33N 37°28' E 025°20'0 0.0
2014-Jul-23 21:33N 37°28' E 025°20'0 0.0
2014-Jul-23 20:34N 37°28' E 025°20'0 0.0
2014-Jul-23 19:33N 37°28' E 025°20'9 9.2
2014-Jul-23 18:33N 37°32' E 025°09'1716.5
2014-Jul-23 17:31N 37°43' E 024°53'1511.5
2014-Jul-23 16:14N 37°53' E 024°39'1319.0
2014-Jul-23 15:34N 37°56' E 024°23'18 2.9
2014-Jul-23 09:17N 38°01' E 024°01'1317.8
2014-Jul-23 08:33N 37°57' E 024°16'2814.0
2014-Jul-23 06:33N 37°46' E 024°49'1919.2
2014-Jul-23 05:33N 37°33' E 025°07'1111.3
2014-Jul-23 04:32N 37°28' E 025°20'0 0.0
2014-Jul-23 03:33N 37°28' E 025°20'0 0.0
2014-Jul-23 02:33N 37°28' E 025°20'0 0.0
2014-Jul-23 01:33N 37°28' E 025°20'0 0.0
2014-Jul-23 00:33N 37°28' E 025°20'0 0.0
2014-Jul-22 23:33N 37°28' E 025°20'0 0.0
2014-Jul-22 22:33N 37°28' E 025°20'0 0.0
2014-Jul-22 21:33N 37°28' E 025°20'0 0.0
2014-Jul-22 20:33N 37°28' E 025°20'0 0.0
2014-Jul-22 19:34N 37°28' E 025°20'9 9.2
2014-Jul-22 18:33N 37°32' E 025°09'1817.4
2014-Jul-22 17:29N 37°44' E 024°51'1210.8
2014-Jul-22 16:21N 37°52' E 024°40'1518.7
2014-Jul-22 15:33N 37°55' E 024°22'16 2.5
2014-Jul-22 09:07N 38°01' E 024°02'1119.2
2014-Jul-22 08:33N 37°57' E 024°15'3615.1
2014-Jul-22 06:12N 37°41' E 024°55'1219.0
2014-Jul-22 05:33N 37°33' E 025°07'1111.4
2014-Jul-22 04:33N 37°28' E 025°20'0 0.0
2014-Jul-22 03:32N 37°28' E 025°20'0 0.0
2014-Jul-22 02:33N 37°28' E 025°20'0 0.0
2014-Jul-22 01:33N 37°28' E 025°20'0 0.0
2014-Jul-22 00:33N 37°28' E 025°20'0 0.0
2014-Jul-21 23:33N 37°28' E 025°20'0 0.0
2014-Jul-21 22:32N 37°28' E 025°20'0 0.0
2014-Jul-21 21:32N 37°28' E 025°20'0 0.0
2014-Jul-21 20:33N 37°28' E 025°20'0 0.0
2014-Jul-21 20:18N 37°28' E 025°20'0 0.0
2014-Jul-21 19:33N 37°28' E 025°20'9 9.3
2014-Jul-21 18:33N 37°32' E 025°09'3313.8
2014-Jul-21 16:09N 37°53' E 024°37'1218.3
2014-Jul-21 15:32N 37°56' E 024°22'32 3.4
2014-Jul-21 06:08N 37°40' E 024°57'1118.6
2014-Jul-21 05:33N 37°33' E 025°07'1111.3
2014-Jul-21 04:33N 37°28' E 025°20'0 0.0
2014-Jul-21 03:33N 37°28' E 025°20'0 0.0
2014-Jul-21 02:32N 37°28' E 025°20'0 0.0
2014-Jul-21 01:33N 37°28' E 025°20'0 0.0
2014-Jul-21 00:33N 37°28' E 025°20'6 5.8
2014-Jul-20 23:33N 37°30' E 025°13'1313.4
2014-Jul-20 22:33N 37°36' E 024°58'2418.9
2014-Jul-20 21:18N 37°47' E 024°32'13 4.4
2014-Jul-20 18:17N 37°56' E 024°19'35 4.5
2014-Jul-20 10:29N 37°39' E 024°58'1112.2
2014-Jul-20 09:33N 37°32' E 025°09'9 9.2
2014-Jul-20 08:33N 37°28' E 025°20'0 0.0
2014-Jul-20 07:32N 37°28' E 025°20'0 0.0
2014-Jul-20 06:33N 37°28' E 025°20'0 0.0
2014-Jul-20 05:33N 37°28' E 025°20'0 0.0
2014-Jul-20 04:33N 37°28' E 025°20'0 0.0
2014-Jul-20 03:33N 37°28' E 025°20'0 0.0
2014-Jul-20 02:32N 37°28' E 025°20'0 0.0
2014-Jul-20 01:33N 37°28' E 025°20'0 0.0
2014-Jul-20 00:33N 37°28' E 025°20'0 0.0
2014-Jul-19 23:33N 37°28' E 025°20'0 0.0
2014-Jul-19 22:33N 37°28' E 025°20'0 0.0
2014-Jul-19 21:33N 37°28' E 025°20'0 0.0
2014-Jul-19 20:32N 37°28' E 025°20'0 0.0
2014-Jul-19 19:33N 37°28' E 025°20'10 9.9
2014-Jul-19 18:33N 37°32' E 025°09'3315.0
2014-Jul-19 16:21N 37°53' E 024°36'16 3.1
2014-Jul-19 11:05N 37°43' E 024°53'1019.0
2014-Jul-19 10:33N 37°37' E 025°02'1312.7
2014-Jul-19 09:33N 37°29' E 025°15'1 0.5
2014-Jul-19 08:33N 37°30' E 025°14'1312.9
2014-Jul-19 07:33N 37°37' E 025°01'46 5.8
2014-Jul-18 23:31N 37°59' E 024°09'2619.7
2014-Jul-18 22:12N 37°46' E 024°38'1619.6
2014-Jul-18 21:23N 37°38' E 024°55'1619.3
2014-Jul-18 20:33N 37°30' E 025°13'6 5.8
2014-Jul-18 19:33N 37°28' E 025°19'10 9.8
2014-Jul-18 18:33N 37°32' E 025°08'4414.6
2014-Jul-18 15:32N 37°56' E 024°21'0 0.0
2014-Jul-18 08:17N 37°56' E 024°21'3214.7
2014-Jul-18 06:08N 37°40' E 024°56'1118.8
2014-Jul-18 05:33N 37°33' E 025°06'1211.7
2014-Jul-18 04:33N 37°28' E 025°20'0 0.0
2014-Jul-18 03:33N 37°28' E 025°20'0 0.0
2014-Jul-18 02:32N 37°28' E 025°20'0 0.0
2014-Jul-18 01:33N 37°28' E 025°20'0 0.0
2014-Jul-18 00:33N 37°28' E 025°20'0 0.0
2014-Jul-17 23:33N 37°28' E 025°20'0 0.0
2014-Jul-17 22:33N 37°28' E 025°20'0 0.0
2014-Jul-17 21:32N 37°28' E 025°20'0 0.0
2014-Jul-17 20:32N 37°28' E 025°20'0 0.1
2014-Jul-17 19:33N 37°28' E 025°20'1110.9
2014-Jul-17 18:33N 37°33' E 025°07'60 6.4
2014-Jul-17 09:14N 38°01' E 024°01'5916.2
2014-Jul-17 05:33N 37°33' E 025°07'1111.2
2014-Jul-17 04:32N 37°28' E 025°20'0 0.0
2014-Jul-17 03:32N 37°28' E 025°20'0 0.0
2014-Jul-17 02:32N 37°28' E 025°20'0 0.0
2014-Jul-17 01:33N 37°28' E 025°20'0 0.0
2014-Jul-17 00:32N 37°28' E 025°20'0 0.0
2014-Jul-16 23:33N 37°28' E 025°20'0 0.0
2014-Jul-16 22:33N 37°28' E 025°20'0 0.0
2014-Jul-16 21:33N 37°28' E 025°20'0 0.0
2014-Jul-16 20:33N 37°28' E 025°20'0 0.0
2014-Jul-16 19:33N 37°28' E 025°20'9 9.3
2014-Jul-16 18:33N 37°32' E 025°09'61 6.5
2014-Jul-16 09:12N 38°01' E 024°02'1419.2
2014-Jul-16 08:29N 37°57' E 024°18'3615.3
2014-Jul-16 06:09N 37°39' E 024°57'1117.8
2014-Jul-16 05:32N 37°32' E 025°08'1010.5
2014-Jul-16 04:33N 37°28' E 025°20'0 0.0
2014-Jul-16 03:33N 37°28' E 025°20'0 0.0
2014-Jul-16 02:33N 37°28' E 025°20'0 0.0
2014-Jul-16 01:33N 37°28' E 025°20'0 0.0
2014-Jul-16 00:32N 37°28' E 025°20'0 0.0
2014-Jul-15 23:33N 37°28' E 025°20'0 0.0
2014-Jul-15 22:33N 37°28' E 025°20'0 0.0
2014-Jul-15 21:33N 37°28' E 025°20'0 0.0
2014-Jul-15 20:34N 37°28' E 025°20'1 1.1
2014-Jul-15 19:32N 37°28' E 025°18'1110.9
2014-Jul-15 18:33N 37°33' E 025°06'4814.8
2014-Jul-15 15:18N 37°58' E 024°14'9 1.5
2014-Jul-15 09:33N 38°01' E 024°04'1919.0
2014-Jul-15 08:33N 37°55' E 024°27'19 9.7
2014-Jul-15 06:33N 37°46' E 024°49'1919.4
2014-Jul-15 05:33N 37°33' E 025°06'1211.8
2014-Jul-15 04:33N 37°28' E 025°20'0 0.0
2014-Jul-15 03:33N 37°28' E 025°20'0 0.0
2014-Jul-15 02:33N 37°28' E 025°20'0 0.0
2014-Jul-15 01:33N 37°28' E 025°20'0 0.0
2014-Jul-15 00:33N 37°28' E 025°20'0 0.0
2014-Jul-14 23:33N 37°28' E 025°20'0 0.0
2014-Jul-14 22:33N 37°28' E 025°20'0 0.0
2014-Jul-14 21:34N 37°28' E 025°20'0 0.0
2014-Jul-14 20:33N 37°28' E 025°20'0 0.1
2014-Jul-14 19:33N 37°28' E 025°20'10 9.7
2014-Jul-14 18:33N 37°32' E 025°09'3414.5
2014-Jul-14 16:12N 37°53' E 024°35'1218.0
2014-Jul-14 15:33N 37°56' E 024°20'  
Track history (hours):
 
Tides and Currents Weather Stations Pressure Air Temp Water Temp Dewpoint Dewpoint Depression Visibility Wind Speed Wind Dir Waves Ship Positions

Theologos P .

Last reported at 2014-Jul-24 09:10 UTC. Time now 2014-Jul-24 16:56 UTC.
Position N 38°01' E 024°02'.

Length 118 m; draft 4.5 m.

Type: Passenger vessel. MMSI: 240521000.

Date/timePositionNaut miles runAvg speedWind from/ knotsBaromVisibWave heightAir tempDewpointWater temp
2014-Jul-24 09:10N 38°01' E 024°02'4815.9
2014-Jul-24 06:10N 37°40' E 024°56'1219.1
2014-Jul-24 05:33N 37°33' E 025°07'1110.9
2014-Jul-24 04:34N 37°28' E 025°20'0 0.0
2014-Jul-24 03:34N 37°28' E 025°20'0 0.0
2014-Jul-24 02:33N 37°28' E 025°20'0 0.0
2014-Jul-24 01:33N 37°28' E 025°20'0 0.0
2014-Jul-24 00:34N 37°28' E 025°20'0 0.0
2014-Jul-23 23:34N 37°28' E 025°20'0 0.0
2014-Jul-23 22:33N 37°28' E 025°20'0 0.0
2014-Jul-23 21:33N 37°28' E 025°20'0 0.0
2014-Jul-23 20:34N 37°28' E 025°20'0 0.0
2014-Jul-23 19:33N 37°28' E 025°20'9 9.2
2014-Jul-23 18:33N 37°32' E 025°09'1716.5
2014-Jul-23 17:31N 37°43' E 024°53'1511.5
2014-Jul-23 16:14N 37°53' E 024°39'1319.0
2014-Jul-23 15:34N 37°56' E 024°23'18 2.9
2014-Jul-23 09:17N 38°01' E 024°01'1317.8
2014-Jul-23 08:33N 37°57' E 024°16'2814.0
2014-Jul-23 06:33N 37°46' E 024°49'1919.2
2014-Jul-23 05:33N 37°33' E 025°07'1111.3
2014-Jul-23 04:32N 37°28' E 025°20'0 0.0
2014-Jul-23 03:33N 37°28' E 025°20'0 0.0
2014-Jul-23 02:33N 37°28' E 025°20'0 0.0
2014-Jul-23 01:33N 37°28' E 025°20'0 0.0
2014-Jul-23 00:33N 37°28' E 025°20'0 0.0
2014-Jul-22 23:33N 37°28' E 025°20'0 0.0
2014-Jul-22 22:33N 37°28' E 025°20'0 0.0
2014-Jul-22 21:33N 37°28' E 025°20'0 0.0
2014-Jul-22 20:33N 37°28' E 025°20'0 0.0
2014-Jul-22 19:34N 37°28' E 025°20'9 9.2
2014-Jul-22 18:33N 37°32' E 025°09'1817.4
2014-Jul-22 17:29N 37°44' E 024°51'1210.8
2014-Jul-22 16:21N 37°52' E 024°40'1518.7
2014-Jul-22 15:33N 37°55' E 024°22'16 2.5
2014-Jul-22 09:07N 38°01' E 024°02'1119.2
2014-Jul-22 08:33N 37°57' E 024°15'3615.1
2014-Jul-22 06:12N 37°41' E 024°55'1219.0
2014-Jul-22 05:33N 37°33' E 025°07'1111.4
2014-Jul-22 04:33N 37°28' E 025°20'0 0.0
2014-Jul-22 03:32N 37°28' E 025°20'0 0.0
2014-Jul-22 02:33N 37°28' E 025°20'0 0.0
2014-Jul-22 01:33N 37°28' E 025°20'0 0.0
2014-Jul-22 00:33N 37°28' E 025°20'0 0.0
2014-Jul-21 23:33N 37°28' E 025°20'0 0.0
2014-Jul-21 22:32N 37°28' E 025°20'0 0.0
2014-Jul-21 21:32N 37°28' E 025°20'0 0.0
2014-Jul-21 20:33N 37°28' E 025°20'0 0.0
2014-Jul-21 20:18N 37°28' E 025°20'0 0.0
2014-Jul-21 19:33N 37°28' E 025°20'9 9.3
2014-Jul-21 18:33N 37°32' E 025°09'3313.8
2014-Jul-21 16:09N 37°53' E 024°37'1218.3
2014-Jul-21 15:32N 37°56' E 024°22'32 3.4
2014-Jul-21 06:08N 37°40' E 024°57'1118.6
2014-Jul-21 05:33N 37°33' E 025°07'1111.3
2014-Jul-21 04:33N 37°28' E 025°20'0 0.0
2014-Jul-21 03:33N 37°28' E 025°20'0 0.0
2014-Jul-21 02:32N 37°28' E 025°20'0 0.0
2014-Jul-21 01:33N 37°28' E 025°20'0 0.0
2014-Jul-21 00:33N 37°28' E 025°20'6 5.8
2014-Jul-20 23:33N 37°30' E 025°13'1313.4
2014-Jul-20 22:33N 37°36' E 024°58'2418.9
2014-Jul-20 21:18N 37°47' E 024°32'13 4.4
2014-Jul-20 18:17N 37°56' E 024°19'35 4.5
2014-Jul-20 10:29N 37°39' E 024°58'1112.2
2014-Jul-20 09:33N 37°32' E 025°09'9 9.2
2014-Jul-20 08:33N 37°28' E 025°20'0 0.0
2014-Jul-20 07:32N 37°28' E 025°20'0 0.0
2014-Jul-20 06:33N 37°28' E 025°20'0 0.0
2014-Jul-20 05:33N 37°28' E 025°20'0 0.0
2014-Jul-20 04:33N 37°28' E 025°20'0 0.0
2014-Jul-20 03:33N 37°28' E 025°20'0 0.0
2014-Jul-20 02:32N 37°28' E 025°20'0 0.0
2014-Jul-20 01:33N 37°28' E 025°20'0 0.0
2014-Jul-20 00:33N 37°28' E 025°20'0 0.0
2014-Jul-19 23:33N 37°28' E 025°20'0 0.0
2014-Jul-19 22:33N 37°28' E 025°20'0 0.0
2014-Jul-19 21:33N 37°28' E 025°20'0 0.0
2014-Jul-19 20:32N 37°28' E 025°20'0 0.0
2014-Jul-19 19:33N 37°28' E 025°20'10 9.9
2014-Jul-19 18:33N 37°32' E 025°09'3315.0
2014-Jul-19 16:21N 37°53' E 024°36'16 3.1
2014-Jul-19 11:05N 37°43' E 024°53'1019.0
2014-Jul-19 10:33N 37°37' E 025°02'1312.7
2014-Jul-19 09:33N 37°29' E 025°15'1 0.5
2014-Jul-19 08:33N 37°30' E 025°14'1312.9
2014-Jul-19 07:33N 37°37' E 025°01'46 5.8
2014-Jul-18 23:31N 37°59' E 024°09'2619.7
2014-Jul-18 22:12N 37°46' E 024°38'1619.6
2014-Jul-18 21:23N 37°38' E 024°55'1619.3
2014-Jul-18 20:33N 37°30' E 025°13'6 5.8
2014-Jul-18 19:33N 37°28' E 025°19'10 9.8
2014-Jul-18 18:33N 37°32' E 025°08'4414.6
2014-Jul-18 15:32N 37°56' E 024°21'0 0.0
2014-Jul-18 08:17N 37°56' E 024°21'3214.7
2014-Jul-18 06:08N 37°40' E 024°56'1118.8
2014-Jul-18 05:33N 37°33' E 025°06'1211.7
2014-Jul-18 04:33N 37°28' E 025°20'0 0.0
2014-Jul-18 03:33N 37°28' E 025°20'0 0.0
2014-Jul-18 02:32N 37°28' E 025°20'0 0.0
2014-Jul-18 01:33N 37°28' E 025°20'0 0.0
2014-Jul-18 00:33N 37°28' E 025°20'0 0.0
2014-Jul-17 23:33N 37°28' E 025°20'0 0.0
2014-Jul-17 22:33N 37°28' E 025°20'0 0.0
2014-Jul-17 21:32N 37°28' E 025°20'0 0.0
2014-Jul-17 20:32N 37°28' E 025°20'0 0.1
2014-Jul-17 19:33N 37°28' E 025°20'1110.9
2014-Jul-17 18:33N 37°33' E 025°07'60 6.4
2014-Jul-17 09:14N 38°01' E 024°01'5916.2
2014-Jul-17 05:33N 37°33' E 025°07'1111.2
2014-Jul-17 04:32N 37°28' E 025°20'0 0.0
2014-Jul-17 03:32N 37°28' E 025°20'0 0.0
2014-Jul-17 02:32N 37°28' E 025°20'0 0.0
2014-Jul-17 01:33N 37°28' E 025°20'0 0.0
2014-Jul-17 00:32N 37°28' E 025°20'0 0.0
2014-Jul-16 23:33N 37°28' E 025°20'0 0.0
2014-Jul-16 22:33N 37°28' E 025°20'0 0.0
2014-Jul-16 21:33N 37°28' E 025°20'0 0.0
2014-Jul-16 20:33N 37°28' E 025°20'0 0.0
2014-Jul-16 19:33N 37°28' E 025°20'9 9.3
2014-Jul-16 18:33N 37°32' E 025°09'61 6.5
2014-Jul-16 09:12N 38°01' E 024°02'1419.2
2014-Jul-16 08:29N 37°57' E 024°18'3615.3
2014-Jul-16 06:09N 37°39' E 024°57'1117.8
2014-Jul-16 05:32N 37°32' E 025°08'1010.5
2014-Jul-16 04:33N 37°28' E 025°20'0 0.0
2014-Jul-16 03:33N 37°28' E 025°20'0 0.0
2014-Jul-16 02:33N 37°28' E 025°20'0 0.0
2014-Jul-16 01:33N 37°28' E 025°20'0 0.0
2014-Jul-16 00:32N 37°28' E 025°20'0 0.0
2014-Jul-15 23:33N 37°28' E 025°20'0 0.0
2014-Jul-15 22:33N 37°28' E 025°20'0 0.0
2014-Jul-15 21:33N 37°28' E 025°20'0 0.0
2014-Jul-15 20:34N 37°28' E 025°20'1 1.1
2014-Jul-15 19:32N 37°28' E 025°18'1110.9
2014-Jul-15 18:33N 37°33' E 025°06'4814.8
2014-Jul-15 15:18N 37°58' E 024°14'9 1.5
2014-Jul-15 09:33N 38°01' E 024°04'1919.0
2014-Jul-15 08:33N 37°55' E 024°27'19 9.7
2014-Jul-15 06:33N 37°46' E 024°49'1919.4
2014-Jul-15 05:33N 37°33' E 025°06'1211.8
2014-Jul-15 04:33N 37°28' E 025°20'0 0.0
2014-Jul-15 03:33N 37°28' E 025°20'0 0.0
2014-Jul-15 02:33N 37°28' E 025°20'0 0.0
2014-Jul-15 01:33N 37°28' E 025°20'0 0.0
2014-Jul-15 00:33N 37°28' E 025°20'0 0.0
2014-Jul-14 23:33N 37°28' E 025°20'0 0.0
2014-Jul-14 22:33N 37°28' E 025°20'0 0.0
2014-Jul-14 21:34N 37°28' E 025°20'0 0.0
2014-Jul-14 20:33N 37°28' E 025°20'0 0.1
2014-Jul-14 19:33N 37°28' E 025°20'10 9.7
2014-Jul-14 18:33N 37°32' E 025°09'3414.5
2014-Jul-14 16:12N 37°53' E 024°35'1218.0
2014-Jul-14 15:33N 37°56' E 024°20'  

Dump ship's entire track history